Stations météo

Publicité
Abbeville, France (7005): Température de l'air & dewpoint: 12.06.2019 15:00:00 - 18.06.2019 15:00:00 (CEST)Abbeville, France (7005): Température de l'air 5cm: 12.06.2019 15:00:00 - 18.06.2019 15:00:00 (CEST)Abbeville, France (7005): Température de l'air -20cm & Température de l'air -100cm: 12.06.2019 15:00:00 - 18.06.2019 15:00:00 (CEST)Abbeville, France (7005): Vitesse du vent & gusts: 12.06.2019 15:00:00 - 18.06.2019 15:00:00 (CEST)Abbeville, France (7005): Direction du vent: 12.06.2019 15:00:00 - 18.06.2019 15:00:00 (CEST)Abbeville, France (7005): reduced air pressure: 12.06.2019 15:00:00 - 18.06.2019 15:00:00 (CEST)Abbeville, France (7005): visibility: 12.06.2019 15:00:00 - 18.06.2019 15:00:00 (CEST)Abbeville, France (7005): Ensoleillement: 12.06.2019 15:00:00 - 18.06.2019 15:00:00 (CEST)Abbeville, France (7005): Quantités de précipitations: 12.06.2019 15:00:00 - 18.06.2019 15:00:00 (CEST)
Date & Time tt [°C] td [°C] tt 5cm [°C] tt -20cm [°C] tt -100cm [°C] ff [km/h] ff [knt] fx [km/h] fx [knt] dd ppp [hPa] vv [km] sd [min] rr [mm]
18.06.2019 15:00:00 - - - - - - - - - - - - - -
18.06.2019 14:00:00 25,5 14,3 29,1 18,6 14,2 16 9 30 16 ESE 1012,6 18 60 0,0
18.06.2019 13:00:00 24,3 15,8 26,4 17,9 14,2 11 6 19 11 ESE 1013,3 20 48 0,0
18.06.2019 12:00:00 23,0 15,3 26,2 17,3 14,2 9 5 19 10 E 1014,0 20 55 0,0
18.06.2019 11:00:00 21,0 13,7 22,4 17,0 14,2 10 5 16 9 E 1014,5 20 58 0,0
18.06.2019 10:00:00 18,7 12,4 19,5 16,9 14,1 11 6 18 10 E 1015,2 20 52 0,0
18.06.2019 09:00:00 15,7 11,9 14,3 16,9 14,2 7 4 10 5 E 1015,5 20 11 0,0
18.06.2019 08:00:00 13,2 11,3 13,7 17,1 14,2 5 3 6 4 E 1015,4 20 16 0,0
18.06.2019 07:00:00 12,0 10,9 9,7 17,4 14,1 0 0 3 1 N 1016,1 16 48 0,0
18.06.2019 06:00:00 11,2 9,8 9,2 17,7 14,2 0 0 5 3 N 1015,9 17 0 0,0
18.06.2019 05:00:00 11,2 9,6 8,9 18,1 14,2 0 0 2 1 N 1016,3 20 0 0,0
18.06.2019 04:00:00 11,5 9,6 9,3 18,5 14,2 0 0 3 2 N 1016,5 20 0 0,0
18.06.2019 03:00:00 11,9 9,8 10,1 18,8 14,2 0 0 4 2 N 1016,9 20 0 0,0
18.06.2019 02:00:00 12,1 10,3 10,0 19,2 14,1 3 1 7 4 NW 1017,5 20 0 0,0
18.06.2019 01:00:00 12,7 10,8 11,3 19,6 14,1 5 3 11 6 N 1017,7 20 0 0,0
18.06.2019 00:00:00 13,2 11,1 11,9 20,0 14,1 10 5 13 7 NW 1018,0 20 0 0,0
17.06.2019 23:00:00 14,2 11,0 12,7 20,4 14,1 7 4 15 8 NW 1017,5 20 0 0,0
17.06.2019 22:00:00 15,6 11,6 15,1 20,7 14,1 10 5 17 9 NW 1017,4 20 15 0,0
17.06.2019 21:00:00 17,2 12,5 17,3 20,9 14,1 13 7 21 11 NW 1017,3 20 4 0,0
17.06.2019 20:00:00 19,4 13,1 20,3 20,9 14,1 14 8 20 11 NW 1017,2 20 13 0,0
17.06.2019 19:00:00 19,7 14,1 21,0 20,7 14,1 12 7 24 13 WNW 1017,3 20 19 0,0
17.06.2019 18:00:00 21,0 14,2 25,3 20,2 14,1 19 11 27 14 WNW 1017,6 20 60 0,0
17.06.2019 17:00:00 21,7 14,8 26,3 19,7 14,1 14 7 23 12 WNW 1018,0 20 60 0,0
17.06.2019 16:00:00 22,0 15,1 26,5 19,0 14,1 11 6 25 13 WNW 1018,2 20 60 0,0
17.06.2019 15:00:00 21,3 15,8 23,9 18,4 14,1 16 9 25 14 WNW 1018,6 20 49 0,0
17.06.2019 14:00:00 21,5 14,6 23,4 17,7 14,0 10 5 23 12 WNW 1018,8 20 29 0,0
17.06.2019 13:00:00 22,6 13,9 23,7 17,1 14,1 10 5 21 12 SW 1019,0 20 38 0,0
17.06.2019 12:00:00 22,5 13,8 23,5 16,5 14,1 8 5 21 11 SSW 1019,4 11 42 0,0
17.06.2019 11:00:00 20,5 13,5 22,2 16,1 14,0 6 4 16 9 SSW 1019,6 20 46 0,0
17.06.2019 10:00:00 19,1 13,9 20,7 15,9 14,0 6 4 12 7 SSE 1020,0 20 60 0,0
17.06.2019 09:00:00 16,5 13,2 18,0 15,9 14,0 8 4 14 8 SSE 1020,4 20 60 0,0
17.06.2019 08:00:00 15,0 13,5 14,5 16,0 14,0 7 4 13 7 S 1020,4 20 60 0,0
17.06.2019 07:00:00 13,1 12,2 11,5 16,2 14,0 10 5 13 7 SE 1020,0 16 48 0,0
17.06.2019 06:00:00 12,2 11,3 11,1 16,5 14,0 6 3 13 7 SE 1019,9 17 0 0,0
17.06.2019 05:00:00 12,8 11,7 11,4 16,8 14,1 10 5 13 7 SE 1019,8 20 0 0,2
17.06.2019 04:00:00 12,6 11,3 11,4 17,0 14,0 7 4 11 6 SE 1020,1 20 0 0,0
17.06.2019 03:00:00 12,7 11,3 11,9 17,3 14,0 7 4 11 6 SE 1020,4 20 0 0,0
17.06.2019 02:00:00 13,0 11,7 11,9 17,7 14,0 8 4 12 6 SE 1020,6 20 0 0,0
17.06.2019 01:00:00 13,1 11,7 12,4 18,0 14,0 8 4 11 6 ESE 1020,7 20 0 0,0
17.06.2019 00:00:00 13,8 11,8 11,7 18,3 14,0 6 3 9 5 E 1020,8 20 0 0,0
16.06.2019 23:00:00 14,5 11,6 11,6 18,5 14,0 4 2 6 4 ENE 1020,8 20 0 0,0
16.06.2019 22:00:00 15,9 11,7 13,9 18,7 14,0 3 2 6 3 NE 1020,7 20 29 0,0
16.06.2019 21:00:00 17,5 12,0 18,3 18,8 14,0 5 3 11 6 NNW 1020,7 20 42 0,0
16.06.2019 20:00:00 17,8 12,3 17,8 18,8 13,9 8 4 18 10 NW 1020,8 20 3 0,0
16.06.2019 19:00:00 18,5 12,0 19,6 18,7 14,0 13 7 23 12 WNW 1020,7 20 16 0,0
16.06.2019 18:00:00 18,6 13,2 15,9 18,5 13,9 14 8 20 11 WNW 1020,7 20 15 0,2
16.06.2019 17:00:00 18,0 13,1 16,1 18,2 13,9 11 6 20 11 W 1020,8 16 24 0,0
16.06.2019 16:00:00 19,6 14,2 17,0 17,9 14,0 9 5 22 12 W 1020,6 20 20 0,0
16.06.2019 15:00:00 17,4 14,1 15,9 17,7 13,9 13 7 22 12 W 1020,5 19 0 0,6
16.06.2019 14:00:00 19,2 12,5 20,1 17,3 13,9 14 8 30 16 SW 1020,2 20 15 0,0
16.06.2019 13:00:00 19,8 11,8 21,2 17,0 13,9 15 8 32 17 SW 1020,0 20 18 0,0
16.06.2019 12:00:00 18,3 12,5 19,2 16,7 13,9 10 5 23 12 SSW 1020,2 20 0 0,0
16.06.2019 11:00:00 17,9 12,1 18,6 16,5 13,9 11 6 26 14 SW 1020,0 20 13 0,0
16.06.2019 10:00:00 17,3 12,6 17,8 16,4 13,9 12 7 27 15 SSW 1019,7 20 13 0,0
16.06.2019 09:00:00 16,3 13,6 15,7 16,5 13,9 7 4 18 10 SSW 1019,6 20 44 0,0
16.06.2019 08:00:00 14,1 13,1 12,7 16,6 13,9 5 3 21 11 WSW 1019,4 20 24 0,2
16.06.2019 07:00:00 13,4 12,3 13,0 16,8 13,9 16 9 24 13 W 1018,8 7 0 0,2
16.06.2019 06:00:00 13,8 12,4 13,3 16,9 13,9 5 3 13 7 S 1018,4 6 0 0,0
16.06.2019 05:00:00 14,0 11,9 13,2 17,1 13,9 7 4 17 9 SW 1018,1 19 0 0,0
16.06.2019 04:00:00 14,4 11,5 13,1 17,4 13,9 7 4 16 9 S 1017,7 20 0 0,0
16.06.2019 03:00:00 14,0 11,0 13,0 17,7 13,9 7 4 18 10 S 1017,5 20 0 0,0
16.06.2019 02:00:00 14,0 10,8 12,6 18,0 13,9 6 4 17 9 S 1017,5 20 0 0,0
16.06.2019 01:00:00 13,5 10,7 12,4 18,3 13,9 4 2 10 6 S 1017,2 20 0 0,0
16.06.2019 00:00:00 14,2 11,2 13,0 18,6 13,9 5 3 11 6 S 1017,1 20 0 0,0
15.06.2019 23:00:00 15,1 11,9 13,2 18,9 13,8 3 2 37 20 SSW 1017,0 20 0 0,0
15.06.2019 22:00:00 17,3 9,7 16,6 19,0 13,8 8 4 17 9 S 1016,3 19 3 0,0
15.06.2019 21:00:00 18,0 9,9 18,0 19,1 13,8 5 3 26 14 SSW 1016,1 20 27 0,0
15.06.2019 20:00:00 19,8 9,4 21,4 19,0 13,8 13 7 32 17 SSW 1015,7 20 50 0,0
15.06.2019 19:00:00 20,0 10,4 19,2 18,9 13,8 13 7 29 16 SSW 1015,7 20 40 0,0
15.06.2019 18:00:00 18,2 10,8 19,0 18,8 13,9 18 10 34 19 W 1015,9 20 5 0,0
15.06.2019 17:00:00 19,7 10,7 18,5 18,4 13,8 8 4 21 11 SW 1015,6 20 14 0,0
15.06.2019 16:00:00 19,9 12,6 20,6 18,1 13,8 10 5 18 10 W 1015,7 20 35 0,0
15.06.2019 15:00:00 17,8 12,7 19,9 17,9 13,8 15 8 23 12 W 1015,8 20 0 0,0
15.06.2019 14:00:00 17,8 11,8 18,1 17,5 13,8 13 7 26 14 WNW 1015,8 20 16 0,0
15.06.2019 13:00:00 17,9 10,8 19,0 17,1 13,8 18 10 32 17 WNW 1015,4 20 27 0,0
15.06.2019 12:00:00 18,5 11,1 19,9 16,6 13,8 15 8 26 14 WNW 1015,0 20 50 0,0
15.06.2019 11:00:00 18,3 11,1 20,9 16,3 13,8 12 6 23 12 W 1014,6 20 58 0,0
15.06.2019 10:00:00 17,6 11,4 21,0 16,1 13,8 8 4 17 9 W 1014,2 20 60 0,0
15.06.2019 09:00:00 16,3 11,9 17,7 16,2 13,8 3 2 7 4 NW 1013,7 20 55 0,0
15.06.2019 08:00:00 14,2 12,6 11,1 16,4 13,8 0 0 6 3 N 1013,2 20 49 0,0
15.06.2019 07:00:00 11,7 10,6 9,9 16,7 13,8 5 3 8 4 NW 1013,1 20 3 0,0
15.06.2019 06:00:00 11,9 10,5 10,8 16,9 13,8 6 3 11 6 NW 1012,9 20 0 0,0
15.06.2019 05:00:00 12,8 10,9 12,0 17,1 13,8 8 4 10 5 WNW 1012,4 20 0 0,0
15.06.2019 04:00:00 13,2 11,4 12,5 17,3 13,8 2 1 5 3 WNW 1012,2 20 0 0,0
15.06.2019 03:00:00 12,9 11,3 12,2 17,6 13,8 4 2 5 3 NNW 1012,2 20 0 0,0
15.06.2019 02:00:00 12,9 11,1 12,0 17,9 13,8 5 3 7 4 NW 1012,3 20 0 0,0
15.06.2019 01:00:00 13,0 10,9 11,9 18,2 13,8 5 3 11 6 NNW 1012,4 20 0 0,0
15.06.2019 00:00:00 13,7 11,2 12,9 18,5 13,8 8 4 10 6 N 1012,6 20 0 0,0
14.06.2019 23:00:00 14,8 11,6 13,9 18,8 13,8 7 4 10 5 NW 1012,9 20 0 0,0
14.06.2019 22:00:00 16,1 11,5 15,3 18,9 13,8 8 5 12 7 NNW 1012,6 20 33 0,0
14.06.2019 21:00:00 17,5 11,5 18,0 19,0 13,8 9 5 18 10 NNW 1012,5 20 52 0,0
14.06.2019 20:00:00 18,9 11,2 22,7 18,9 13,8 15 8 24 13 NNW 1012,2 20 60 0,0
14.06.2019 19:00:00 18,7 10,8 22,6 18,8 13,8 18 10 24 13 NNW 1012,1 20 56 0,0
14.06.2019 18:00:00 19,6 11,9 22,3 18,4 13,8 13 7 27 15 WNW 1012,2 20 44 0,0
14.06.2019 17:00:00 20,0 12,0 22,2 17,9 13,8 15 8 26 14 WNW 1012,4 20 49 0,0
14.06.2019 16:00:00 20,0 11,2 21,3 17,3 13,8 8 4 30 16 WNW 1012,8 20 35 0,0
14.06.2019 15:00:00 21,2 8,8 25,6 16,6 13,8 17 9 30 16 WSW 1013,3 19 58 -
14.06.2019 14:00:00 21,0 10,2 21,3 15,9 13,8 12 6 29 16 SSW 1013,6 7 45 0,0
14.06.2019 13:00:00 20,1 9,3 20,8 15,2 13,8 11 6 27 15 S 1013,6 4,9 52 0,0
14.06.2019 12:00:00 18,8 10,1 21,2 14,7 13,8 10 5 26 14 SSW 1013,6 19 58 0,0
14.06.2019 11:00:00 17,5 10,4 20,2 14,3 13,8 8 4 21 11 SW 1013,5 20 60 0,0
14.06.2019 10:00:00 15,7 11,1 14,8 14,2 13,8 9 5 19 11 SW 1013,1 20 51 0,0
14.06.2019 09:00:00 12,8 10,5 11,9 14,2 13,8 4 2 13 7 S 1012,9 20 1 0,0
14.06.2019 08:00:00 11,7 10,1 10,8 14,3 13,8 6 4 15 8 SSE 1012,8 20 0 0,0
14.06.2019 07:00:00 11,0 9,6 10,6 14,5 13,8 5 3 11 6 S 1012,5 20 0 0,0
14.06.2019 06:00:00 10,9 9,8 9,8 14,7 13,7 6 3 12 7 SSE 1012,2 20 0 0,0
14.06.2019 05:00:00 10,4 9,3 9,3 14,9 13,8 6 3 12 6 S 1011,9 20 0 0,0
14.06.2019 04:00:00 10,0 8,9 8,7 15,2 13,8 7 4 11 6 SSE 1012,0 20 0 0,2
14.06.2019 03:00:00 10,1 9,0 9,2 15,5 13,7 8 4 11 6 SE 1011,7 20 0 0,0
14.06.2019 02:00:00 10,9 9,7 9,6 15,7 13,8 5 3 10 5 SE 1012,1 20 0 0,0
14.06.2019 01:00:00 11,3 10,0 10,3 16,0 13,8 6 3 11 6 SE 1012,2 20 0 0,0
14.06.2019 00:00:00 11,9 10,6 9,9 16,2 13,7 7 4 10 5 ESE 1012,1 20 0 0,0
13.06.2019 23:00:00 12,7 11,3 11,0 16,4 13,7 4 2 7 4 SE 1011,9 20 0 0,0
13.06.2019 22:00:00 13,5 11,5 12,2 16,5 13,7 4 2 15 8 SSW 1011,4 20 14 0,0
13.06.2019 21:00:00 13,7 11,9 13,0 16,5 13,7 6 3 13 7 SW 1010,9 20 0 0,3
13.06.2019 20:00:00 14,0 11,5 12,8 16,5 13,7 8 4 27 14 S 1010,6 20 18 3,4
13.06.2019 19:00:00 16,1 10,6 15,1 16,3 13,7 14 8 26 14 WSW 1010,0 19 27 0,0
13.06.2019 18:00:00 15,1 11,3 14,7 16,2 13,7 13 7 29 16 S 1009,9 20 0 0,0
13.06.2019 17:00:00 16,2 11,8 13,3 16,0 13,7 11 6 32 17 SSW 1009,7 20 2 0,2
13.06.2019 16:00:00 13,7 11,2 12,8 15,7 13,7 15 8 35 19 W 1010,0 19 25 0,2
13.06.2019 15:00:00 14,4 11,2 12,9 15,5 13,7 13 7 45 25 SSW 1009,5 17 4 0,4
13.06.2019 14:00:00 15,6 10,6 14,7 15,4 13,7 16 9 39 21 S 1009,6 20 0 0,2
13.06.2019 13:00:00 15,0 10,2 12,4 15,2 13,7 15 8 35 19 S 1009,7 20 0 0,2
13.06.2019 12:00:00 14,9 9,9 15,1 15,1 13,7 18 10 37 20 S 1009,8 20 9 0,0
13.06.2019 11:00:00 13,7 9,7 14,3 15,0 13,7 16 9 37 20 S 1010,0 20 0 0,0
13.06.2019 10:00:00 13,7 9,5 13,6 15,0 13,7 17 9 35 19 S 1009,7 20 0 0,0
13.06.2019 09:00:00 12,8 9,6 12,6 15,1 13,7 9 5 22 12 S 1009,7 20 0 0,0
13.06.2019 08:00:00 12,2 9,4 12,0 15,2 13,7 11 6 28 15 S 1009,6 20 0 0,0
13.06.2019 07:00:00 12,0 9,7 11,5 15,4 13,7 8 5 18 10 S 1009,2 20 0 0,0
13.06.2019 06:00:00 11,8 9,7 11,4 15,6 13,7 8 4 24 13 S 1009,0 20 0 0,0
13.06.2019 05:00:00 11,7 9,6 11,2 15,8 13,7 8 4 22 12 S 1008,7 20 0 0,0
13.06.2019 04:00:00 11,8 9,9 11,2 16,0 13,7 8 4 19 11 S 1008,6 20 0 0,0
13.06.2019 03:00:00 11,7 9,8 11,4 16,3 13,7 9 5 23 12 SSW 1008,5 20 0 0,0
13.06.2019 02:00:00 12,0 9,7 10,9 16,5 13,7 8 4 19 10 S 1008,6 20 0 0,0
13.06.2019 01:00:00 12,1 9,5 11,4 16,8 13,7 9 5 18 10 S 1008,5 20 0 0,0
13.06.2019 00:00:00 13,1 9,9 12,5 17,1 13,7 9 5 15 8 SSE 1008,6 20 0 0,0
12.06.2019 23:00:00 13,3 9,9 12,1 17,3 13,7 6 3 14 8 SSE 1008,8 20 0 0,0
12.06.2019 22:00:00 14,1 9,7 13,2 17,4 13,7 6 3 13 7 S 1008,2 20 17 0,0
12.06.2019 21:00:00 14,5 9,5 14,4 17,5 13,7 11 6 21 11 SE 1008,1 20 22 0,0
12.06.2019 20:00:00 16,3 9,7 17,1 17,5 13,7 4 2 16 9 S 1007,9 20 28 0,0
12.06.2019 19:00:00 16,1 9,5 15,5 17,5 13,7 9 5 37 20 S 1008,0 20 17 0,0
12.06.2019 18:00:00 17,9 8,7 19,2 17,3 13,6 11 6 28 15 S 1007,9 20 19 0,0
12.06.2019 17:00:00 18,1 9,2 19,0 17,1 13,6 14 8 27 15 SSE 1008,1 20 10 0,0
12.06.2019 16:00:00 17,7 8,5 17,4 16,6 13,6 11 6 22 12 SSE 1008,3 20 15 0,0
12.06.2019 15:00:00 17,9 9,5 20,1 16,2 13,6 4 2 13 7 ESE 1008,6 20 34 0,0

tt = Température de l'air
td = dewpoint
tt 5cm = Température de l'air 5cm
tt -20cm = Température de l'air -20cm
tt -100cm = Température de l'air -100cm
ff = Vitesse du vent
fx = gusts
dd = Direction du vent
ppp = reduced air pressure
vv = visibility
sd = Ensoleillement
rr = Quantités de précipitations

stations d'obs. à proximité